Location: McFarlands Corners
(41.4117°N, 81.3382°W)
Time: 06:20:54
(UTC+00:00)

Transit 4A - Pass Details

Date: 23 February 2026
Orbit: 864 x 977 km, 66.8° (Epoch: 5 March)

Event Time Altitude Azimuth Distance (km) Brightness Sun altitude
Rises 17:02:28 0° 328° (NNW) 3,621 10.5 38.3°
Reaches altitude 10° 17:05:00 10° 326° (NNW) 2,687 10.0 38.4°
Maximum altitude 17:11:16 72° 244° (WSW) 1,014 8.9 38.6°
Drops below altitude 10° 17:17:36 10° 161° (SSE) 2,714 11.5 38.7°
Sets 17:20:10 0° 159° (SSE) 3,660 11.9 38.8°
